Location: Anan
(43.3550°N, 0.8171°E)
Time: 10:36:50
(UTC+00:00)

Cosmos 1536 - Pass Details

Date: 14 May 2026
Orbit: 482 x 500 km, 82.5° (Epoch: 6 June)

Event Time Altitude Azimuth Distance (km) Brightness Sun altitude
Rises 21:54:45 0° 4° (N) 2,568 7.1 -22.2°
Reaches altitude 10° 21:57:09 10° 18° (NNE) 1,685 5.8 -22.4°
Enters shadow 21:59:28 23° 55° (NE) 1,100 4.4 -22.6°
